Location: Mound City (historical)
(34.0564°N, 117.2656°W)
Time: 02:22:37
(UTC+00:00)

IRS-1D - Pass Details

Date: 08 September 2024
Orbit: 738 x 812 km, 98.8° (Epoch: 03 October)

Event Time Altitude Azimuth Distance (km) Brightness Sun altitude
Rises 12:03:33 0° 7° (N) 3,326 7.2 -17.8°
Reaches altitude 10° 12:05:55 10° 3° (N) 2,397 6.3 -17.3°
Maximum altitude 12:11:05 56° 287° (WNW) 966 3.7 -16.3°
Enters shadow 12:15:20 15° 213° (SSW) 2,041 5.3 -15.5°
